Time,TemperatureF,DewpointF,PressureIn,WindDirection,WindDirectionDegrees,WindSpeedMPH,WindSpeedGustMPH,Humidity,HourlyPrecipIn,Conditions,Clouds,dailyrainin,SoftwareType,DateUTC
2013-02-18 07:19:00,34.4,27.0,29.82,SSE,163,12.0,12.0,74,0.00,,,0.00,Wunderground v.1.15,2013-02-18 13:19:00,
2013-02-18 07:21:00,34.6,27.2,29.81,SSE,162,12.0,15.0,74,0.00,,,0.00,Wunderground v.1.15,2013-02-18 13:21:00,
2013-02-18 07:22:00,34.8,27.4,29.81,SSW,210,12.0,15.0,74,0.00,,,0.00,Wunderground v.1.15,2013-02-18 13:22:00,
2013-02-18 07:27:00,34.9,27.1,29.81,SW,222,12.0,15.0,73,0.00,,,0.00,Wunderground v.1.15,2013-02-18 13:27:00,
2013-02-18 07:33:00,35.3,27.8,29.81,South,187,12.0,17.0,74,0.00,,,0.00,Wunderground v.1.15,2013-02-18 13:33:00,
2013-02-18 07:38:00,35.6,27.8,29.81,South,188,12.0,21.0,73,0.00,,,0.00,Wunderground v.1.15,2013-02-18 13:38:00,
2013-02-18 07:44:00,36.0,28.2,29.80,South,187,12.0,15.0,73,0.00,,,0.00,Wunderground v.1.15,2013-02-18 13:44:00,
2013-02-18 07:50:00,36.0,28.2,29.80,South,191,12.0,13.0,73,0.00,,,0.00,Wunderground v.1.15,2013-02-18 13:50:00,
2013-02-18 07:55:00,36.2,28.4,29.80,South,188,11.0,15.0,73,0.00,,,0.00,Wunderground v.1.15,2013-02-18 13:55:00,
2013-02-18 08:01:00,36.7,28.9,29.80,SSW,202,11.0,12.0,73,0.00,,,0.00,Wunderground v.1.15,2013-02-18 14:01:00,
2013-02-18 08:06:00,37.2,29.3,29.80,South,182,12.0,12.0,73,0.00,,,0.00,Wunderground v.1.15,2013-02-18 14:06:00,
2013-02-18 08:12:00,37.8,29.9,29.80,SSE,165,12.0,15.0,73,0.00,,,0.00,Wunderground v.1.15,2013-02-18 14:12:00,
2013-02-18 08:17:00,38.1,30.2,29.80,South,191,12.0,15.0,73,0.00,,,0.00,Wunderground v.1.15,2013-02-18 14:17:00,
2013-02-18 08:23:00,38.7,30.8,29.79,South,186,12.0,14.0,73,0.00,,,0.00,Wunderground v.1.15,2013-02-18 14:23:00,
2013-02-18 08:28:00,39.1,30.8,29.79,South,182,13.0,14.0,72,0.00,,,0.00,Wunderground v.1.15,2013-02-18 14:28:00,
2013-02-18 08:34:00,39.4,31.1,29.79,South,191,12.0,12.0,72,0.00,,,0.00,Wunderground v.1.15,2013-02-18 14:34:00,
2013-02-18 08:39:00,39.6,31.7,29.78,South,177,11.0,17.0,73,0.00,,,0.00,Wunderground v.1.15,2013-02-18 14:39:00,
2013-02-18 08:44:00,39.9,31.9,29.78,SW,214,12.0,16.0,73,0.00,,,0.00,Wunderground v.1.15,2013-02-18 14:44:00,
2013-02-18 08:50:00,40.1,32.1,29.78,South,180,12.0,12.0,73,0.00,,,0.00,Wunderground v.1.15,2013-02-18 14:50:00,
2013-02-18 08:55:00,40.6,32.6,29.78,South,190,12.0,14.0,73,0.00,,,0.00,Wunderground v.1.15,2013-02-18 14:55:00,
2013-02-18 09:00:00,41.1,33.1,29.77,SW,224,11.0,11.0,73,0.00,,,0.00,Wunderground v.1.15,2013-02-18 15:00:00,
2013-02-18 09:06:00,41.8,33.4,29.77,SSE,156,12.0,15.0,72,0.00,,,0.00,Wunderground v.1.15,2013-02-18 15:06:00,
2013-02-18 09:12:00,42.8,34.4,29.77,SSE,166,11.0,12.0,72,0.00,,,0.00,Wunderground v.1.15,2013-02-18 15:12:00,
2013-02-18 09:18:00,43.4,35.0,29.77,SSE,165,10.0,14.0,72,0.00,,,0.00,Wunderground v.1.15,2013-02-18 15:18:00,
2013-02-18 09:23:00,43.8,35.0,29.76,SSW,194,10.0,15.0,71,0.00,,,0.00,Wunderground v.1.15,2013-02-18 15:23:00,
2013-02-18 09:28:00,44.3,35.1,29.76,SSW,202,11.0,17.0,70,0.00,,,0.00,Wunderground v.1.15,2013-02-18 15:28:00,
2013-02-18 09:34:00,44.7,35.9,29.76,South,186,11.0,16.0,71,0.00,,,0.00,Wunderground v.1.15,2013-02-18 15:34:00,
2013-02-18 09:40:00,45.2,36.0,29.76,SSE,168,10.0,13.0,70,0.00,,,0.00,Wunderground v.1.15,2013-02-18 15:40:00,
2013-02-18 09:45:00,45.5,35.9,29.76,SSW,202,11.0,20.0,69,0.00,,,0.00,Wunderground v.1.15,2013-02-18 15:45:00,
2013-02-18 09:50:00,45.9,36.7,29.76,SSW,194,11.0,11.0,70,0.00,,,0.00,Wunderground v.1.15,2013-02-18 15:50:00,
2013-02-18 09:56:00,46.4,36.8,29.75,South,186,10.0,13.0,69,0.00,,,0.00,Wunderground v.1.15,2013-02-18 15:56:00,
2013-02-18 10:01:00,46.9,37.3,29.75,SSW,195,10.0,10.0,69,0.00,,,0.00,Wunderground v.1.15,2013-02-18 16:01:00,
2013-02-18 10:07:00,47.5,37.8,29.75,SSE,167,11.0,12.0,69,0.00,,,0.00,Wunderground v.1.15,2013-02-18 16:07:00,
2013-02-18 10:13:00,48.0,37.9,29.75,SSE,161,10.0,17.0,68,0.00,,,0.00,Wunderground v.1.15,2013-02-18 16:13:00,
2013-02-18 10:18:00,48.3,38.6,29.75,South,188,11.0,17.0,69,0.00,,,0.00,Wunderground v.1.15,2013-02-18 16:18:00,
2013-02-18 10:24:00,48.8,38.7,29.75,SSE,157,11.0,16.0,68,0.00,,,0.00,Wunderground v.1.15,2013-02-18 16:24:00,
2013-02-18 10:30:00,49.4,39.7,29.75,SSW,193,11.0,12.0,69,0.00,,,0.00,Wunderground v.1.15,2013-02-18 16:30:00,
2013-02-18 10:35:00,49.4,39.3,29.75,SSE,157,11.0,18.0,68,0.00,,,0.00,Wunderground v.1.15,2013-02-18 16:35:00,
2013-02-18 10:41:00,49.6,39.5,29.75,South,169,11.0,14.0,68,0.00,,,0.00,Wunderground v.1.15,2013-02-18 16:41:00,
2013-02-18 10:46:00,49.7,39.9,29.75,SSW,213,11.0,16.0,69,0.00,,,0.00,Wunderground v.1.15,2013-02-18 16:46:00,
2013-02-18 10:52:00,49.9,40.1,29.74,SSW,199,11.0,13.0,69,0.00,,,0.00,Wunderground v.1.15,2013-02-18 16:52:00,
2013-02-18 10:57:00,50.1,40.7,29.74,SSW,197,10.0,13.0,70,0.00,,,0.00,Wunderground v.1.15,2013-02-18 16:57:00,
2013-02-18 11:04:00,50.5,40.7,29.74,SSW,195,11.0,13.0,69,0.00,,,0.00,Wunderground v.1.15,2013-02-18 17:04:00,
2013-02-18 11:09:00,50.6,40.8,29.74,SSW,194,11.0,19.0,69,0.00,,,0.00,Wunderground v.1.15,2013-02-18 17:09:00,
2013-02-18 11:15:00,50.9,41.1,29.74,South,184,11.0,14.0,69,0.00,,,0.00,Wunderground v.1.15,2013-02-18 17:15:00,
2013-02-18 11:21:00,51.6,41.4,29.73,South,185,12.0,15.0,68,0.00,,,0.00,Wunderground v.1.15,2013-02-18 17:21:00,
2013-02-18 11:27:00,52.1,41.9,29.73,SSW,211,12.0,15.0,68,0.00,,,0.00,Wunderground v.1.15,2013-02-18 17:27:00,
2013-02-18 11:33:00,52.6,42.3,29.73,SW,217,11.0,14.0,68,0.00,,,0.00,Wunderground v.1.15,2013-02-18 17:33:00,
2013-02-18 11:39:00,51.9,41.7,29.73,South,190,12.0,16.0,68,0.00,,,0.00,Wunderground v.1.15,2013-02-18 17:39:00,
2013-02-18 11:45:00,52.0,42.1,29.73,SSW,195,12.0,17.0,69,0.00,,,0.00,Wunderground v.1.15,2013-02-18 17:45:00,
2013-02-18 11:50:00,51.7,41.9,29.72,South,189,12.0,12.0,69,0.00,,,0.00,Wunderground v.1.15,2013-02-18 17:50:00,
2013-02-18 11:56:00,51.7,42.6,29.72,SSW,209,11.0,15.0,71,0.00,,,0.00,Wunderground v.1.15,2013-02-18 17:56:00,
2013-02-18 12:02:00,51.8,42.7,29.71,SSW,201,11.0,19.0,71,0.00,,,0.00,Wunderground v.1.15,2013-02-18 18:02:00,
2013-02-18 12:09:00,52.6,43.5,29.71,SW,218,11.0,19.0,71,0.00,,,0.00,Wunderground v.1.15,2013-02-18 18:09:00,
2013-02-18 12:14:00,53.0,43.8,29.70,SW,214,11.0,13.0,71,0.00,,,0.00,Wunderground v.1.15,2013-02-18 18:14:00,
2013-02-18 12:19:00,52.7,43.6,29.70,SSW,207,12.0,15.0,71,0.00,,,0.00,Wunderground v.1.15,2013-02-18 18:19:00,
2013-02-18 12:25:00,52.6,43.5,29.70,SW,223,12.0,13.0,71,0.00,,,0.00,Wunderground v.1.15,2013-02-18 18:25:00,
2013-02-18 12:31:00,52.8,44.0,29.70,South,169,12.0,12.0,72,0.00,,,0.00,Wunderground v.1.15,2013-02-18 18:31:00,
2013-02-18 12:37:00,52.6,43.5,29.69,South,173,12.0,18.0,71,0.00,,,0.00,Wunderground v.1.15,2013-02-18 18:37:00,
2013-02-18 12:43:00,52.1,43.7,29.69,SSW,195,11.0,13.0,73,0.00,,,0.00,Wunderground v.1.15,2013-02-18 18:43:00,
2013-02-18 12:49:00,51.9,43.9,29.68,South,190,10.0,17.0,74,0.00,,,0.00,Wunderground v.1.15,2013-02-18 18:49:00,
2013-02-18 12:55:00,51.9,43.9,29.68,SW,223,12.0,18.0,74,0.00,,,0.00,Wunderground v.1.15,2013-02-18 18:55:00,
2013-02-18 13:01:00,51.8,44.1,29.68,South,175,11.0,11.0,75,0.00,,,0.00,Wunderground v.1.15,2013-02-18 19:01:00,
2013-02-18 13:06:00,51.9,44.6,29.68,SSW,205,9.0,11.0,76,0.00,,,0.00,Wunderground v.1.15,2013-02-18 19:06:00,
2013-02-18 13:12:00,51.8,44.1,29.67,SSW,200,9.0,9.0,75,0.00,,,0.00,Wunderground v.1.15,2013-02-18 19:12:00,
2013-02-18 13:17:00,51.9,44.6,29.67,SW,217,10.0,12.0,76,0.00,,,0.00,Wunderground v.1.15,2013-02-18 19:17:00,
2013-02-18 13:23:00,51.9,44.6,29.66,SSW,210,9.0,10.0,76,0.00,,,0.00,Wunderground v.1.15,2013-02-18 19:23:00,
2013-02-18 13:29:00,52.3,45.3,29.66,SW,223,9.0,12.0,77,0.00,,,0.00,Wunderground v.1.15,2013-02-18 19:29:00,
2013-02-18 13:34:00,52.7,45.3,29.66,SSW,192,10.0,19.0,76,0.00,,,0.00,Wunderground v.1.15,2013-02-18 19:34:00,
2013-02-18 13:39:00,52.8,45.4,29.66,WSW,244,10.0,19.0,76,0.00,,,0.00,Wunderground v.1.15,2013-02-18 19:39:00,
2013-02-18 13:45:00,52.7,45.3,29.65,South,176,11.0,16.0,76,0.00,,,0.00,Wunderground v.1.15,2013-02-18 19:45:00,
2013-02-18 13:50:00,52.7,45.7,29.65,SSW,206,11.0,11.0,77,0.00,,,0.00,Wunderground v.1.15,2013-02-18 19:50:00,
2013-02-18 13:56:00,52.5,45.5,29.65,SW,216,8.0,11.0,77,0.00,,,0.00,Wunderground v.1.15,2013-02-18 19:56:00,
2013-02-18 14:02:00,52.1,45.8,29.64,SSW,194,8.0,8.0,79,0.00,,,0.00,Wunderground v.1.15,2013-02-18 20:02:00,
2013-02-18 14:08:00,51.6,45.6,29.64,SSW,196,8.0,10.0,80,0.00,,,0.00,Wunderground v.1.15,2013-02-18 20:08:00,
2013-02-18 14:14:00,51.3,45.7,29.64,SSW,211,7.0,9.0,81,0.00,,,0.00,Wunderground v.1.15,2013-02-18 20:14:00,
2013-02-18 14:19:00,51.2,45.6,29.64,South,181,7.0,9.0,81,0.00,,,0.00,Wunderground v.1.15,2013-02-18 20:19:00,
2013-02-18 14:25:00,51.1,45.5,29.64,SE,136,8.0,8.0,81,0.00,,,0.00,Wunderground v.1.15,2013-02-18 20:25:00,
2013-02-18 14:30:00,51.0,45.0,29.64,South,169,9.0,11.0,80,0.00,,,0.00,Wunderground v.1.15,2013-02-18 20:30:00,
2013-02-18 14:36:00,50.8,45.2,29.63,SSW,204,10.0,16.0,81,0.00,,,0.00,Wunderground v.1.15,2013-02-18 20:36:00,
2013-02-18 14:41:00,50.5,45.2,29.63,South,173,9.0,12.0,82,0.00,,,0.00,Wunderground v.1.15,2013-02-18 20:41:00,
2013-02-18 14:47:00,50.3,45.0,29.63,South,188,10.0,13.0,82,0.00,,,0.00,Wunderground v.1.15,2013-02-18 20:47:00,
2013-02-18 14:52:00,50.2,44.9,29.63,SSE,163,10.0,14.0,82,0.00,,,0.00,Wunderground v.1.15,2013-02-18 20:52:00,
2013-02-18 14:59:00,50.1,44.8,29.62,SSW,204,10.0,17.0,82,0.00,,,0.00,Wunderground v.1.15,2013-02-18 20:59:00,
2013-02-18 15:05:00,49.8,45.2,29.62,South,171,10.0,14.0,84,0.00,,,0.00,Wunderground v.1.15,2013-02-18 21:05:00,
2013-02-18 15:10:00,49.7,45.1,29.62,SSW,196,10.0,10.0,84,0.00,,,0.00,Wunderground v.1.15,2013-02-18 21:10:00,
2013-02-18 15:16:00,49.8,45.2,29.61,SSW,198,10.0,12.0,84,0.00,,,0.00,Wunderground v.1.15,2013-02-18 21:16:00,
2013-02-18 15:21:00,49.8,44.8,29.61,SSW,203,10.0,13.0,83,0.00,,,0.00,Wunderground v.1.15,2013-02-18 21:21:00,
2013-02-18 15:27:00,49.7,45.1,29.61,South,186,10.0,16.0,84,0.00,,,0.00,Wunderground v.1.15,2013-02-18 21:27:00,
2013-02-18 15:32:00,49.6,45.0,29.60,SW,219,11.0,12.0,84,0.00,,,0.00,Wunderground v.1.15,2013-02-18 21:32:00,
2013-02-18 15:39:00,49.6,45.3,29.60,SSW,193,12.0,17.0,85,0.00,,,0.00,Wunderground v.1.15,2013-02-18 21:39:00,
2013-02-18 15:44:00,49.6,45.0,29.60,South,170,11.0,14.0,84,0.00,,,0.00,Wunderground v.1.15,2013-02-18 21:44:00,
2013-02-18 15:50:00,49.4,45.1,29.60,SE,146,11.0,11.0,85,0.00,,,0.00,Wunderground v.1.15,2013-02-18 21:50:00,
2013-02-18 15:56:00,49.4,45.1,29.59,SSE,153,11.0,18.0,85,0.00,,,0.00,Wunderground v.1.15,2013-02-18 21:56:00,
2013-02-18 16:02:00,49.5,44.9,29.59,South,172,11.0,13.0,84,0.00,,,0.00,Wunderground v.1.15,2013-02-18 22:02:00,
2013-02-18 16:09:00,49.4,44.8,29.58,South,178,12.0,13.0,84,0.00,,,0.00,Wunderground v.1.15,2013-02-18 22:09:00,
2013-02-18 16:14:00,49.5,44.9,29.59,South,189,13.0,19.0,84,0.00,,,0.00,Wunderground v.1.15,2013-02-18 22:14:00,
2013-02-18 16:20:00,49.4,45.1,29.58,South,171,15.0,20.0,85,0.00,,,0.00,Wunderground v.1.15,2013-02-18 22:20:00,
2013-02-18 16:25:00,49.4,45.1,29.58,South,174,15.0,20.0,85,0.00,,,0.00,Wunderground v.1.15,2013-02-18 22:25:00,
2013-02-18 16:30:00,49.1,44.8,29.58,SSW,205,14.0,15.0,85,0.00,,,0.00,Wunderground v.1.15,2013-02-18 22:30:00,
2013-02-18 16:36:00,49.1,45.1,29.57,SSW,206,14.0,24.0,86,0.00,,,0.00,Wunderground v.1.15,2013-02-18 22:36:00,
2013-02-18 16:42:00,49.0,45.0,29.57,SSE,163,14.0,17.0,86,0.00,,,0.00,Wunderground v.1.15,2013-02-18 22:42:00,